パンスターズ彗星

C/2021 A6 ( PanSTARRS )

English version
Home page
Updated on March 27, 2022

---------------------------------------------------------------------

・ プロフィール

発見日 2021年1月8日
発見光度 20.8等
発見者 Pan-STARRS 1 telescope (Haleakala)

・ 写真集

・ 軌道要素

Epoch 2022 Jan. 21.0 TT = JDT 2459600.5
T 2021 May 4.21912 TT                                   Rudenko
q   7.9286160            (2000.0)            P               Q
z  +0.0000923      Peri.  351.69791     -0.94172234     -0.20630279
 +/-0.0000017      Node   164.07927     +0.33632589     -0.56186833
e   0.9992686      Incl.   75.61165     -0.00662732     +0.80108872
From 112 observations 2020 Nov. 26-2022 Jan. 27, mean residual 0".4.

・ 光度変化

        m1 = 6.0 + 5 logΔ + 10.0 log r

---------------------------------------------------------------------

軌道要素はM.P.E.C. 2022-C56に掲載されたものです。
光度グラフはComet for Windowsで作成したものです。

---------------------------------------------------------------------

Copyright(C) Seiichi Yoshida (comet@aerith.net). All rights reserved.